Regional Weather Roundup
Issued by NWS

Home | Current Version | Previous Version | Graphics & Text | Print | Product List | Glossary Off
Versions: 1 2 3 4 5 6 7 8 9 10 11 12 13 14 15 16 17 18 19 20 21 22 23 24 25 26 27 28 29 30 31 32 33 34 35 36 37 38 39 40 41 42 43 44 45 46 47 48 49 50

000
ASUS43 KLSX 240159
RWRMO

WEATHER SUMMARY FOR MISSOURI
NATIONAL WEATHER SERVICE SPRINGFIELD MO
900 PM CDT SAT MAY 23 2015

NOTE: "FAIR" INDICATES FEW OR NO CLOUDS BELOW 12,000 FEET WITH NO
       SIGNIFICANT WEATHER AND/OR OBSTRUCTIONS TO VISIBILITY.
       CURRENT SKY AND/OR WEATHER CONDITIONS ARE NOT AVAILABLE FOR
       CHILLICOTHE AND FARMINGTON.

MOZ001>031-035>038-043-044-053-054-240300-
...NORTHERN AND WESTERN MISSOURI...

CITY           SKY/WX    TMP DP  RH WIND       PRES   REMARKS
KANSAS CTY INT RAIN      62  61  96 E9        30.06F FOG
KANSAS C DTWN  LGT RAIN  64  60  87 NE9       30.04F
LEE`S SUMMIT   LGT RAIN  62  59  90 E10       30.05F
ST JOSEPH      LGT RAIN  63  61  93 NE5       30.07F
KIRKSVILLE     CLOUDY    67  55  65 SE9       30.11F

$$
MOZ066>068-077>081-088>096-101>105-240300-
...SOUTHWEST MISSOURI...

CITY           SKY/WX    TMP DP  RH WIND       PRES   REMARKS
SPRINGFIELD    LGT RAIN  68  59  73 SE17      30.04F
JOPLIN         CLOUDY    67  63  87 E15G22    29.97F

$$
MOZ032>034-039>042-045>050-055>058-069>072-240300-
...CENTRAL MISSOURI...

CITY           SKY/WX    TMP DP  RH WIND       PRES   REMARKS
COLUMBIA       CLOUDY    67  56  67 SE8       30.11F
JEFFERSON CITY CLOUDY    68  56  65 SE10      30.11S
ROLLA          CLOUDY    65  50  58 SE12      30.12F
SEDALIA        LGT RAIN  66  57  72 SE8       30.09F
OSAGE BEACH    CLOUDY    66  55  68 E3        30.10F

$$
MOZ051-052-059>065-240300-
...EAST CENTRAL MISSOURI...

CITY           SKY/WX    TMP DP  RH WIND       PRES   REMARKS
ST LOUIS INTL  CLOUDY    74  47  38 S9        30.17R
SPIRIT OF STL  CLOUDY    70  49  47 SE3       30.15R
ST CHARLES     CLOUDY    71  53  52 SE5       30.16R

$$
MOZ072>076-082>087-097>100-106>115-240300-
...SOUTH CENTRAL AND SOUTHEAST MISSOURI...

CITY           SKY/WX    TMP DP  RH WIND       PRES   REMARKS
CAPE GIRARDEAU PTCLDY    67  56  67 SE5       30.16S
FARMINGTON     CLOUDY    66  50  55 SE5       30.21S
POPLAR BLUFF   PTCLDY    68  60  75 CALM      30.14S
WEST PLAINS    MOCLDY    67  54  63 SE8       30.14F

$$



USA.gov is the U.S. government's official web portal to all federal, state and local government web resources and services.